TimeMST,TemperatureF,Dew PointF,Humidity,Sea Level PressureIn,VisibilityMPH,Wind Direction,Wind SpeedMPH,Gust SpeedMPH,PrecipitationIn,Events,Conditions,WindDirDegrees,DateUTC
12:53 AM,25.0,19.9,81,30.57,10.0,Calm,Calm,-,N/A,,Clear,0,2013-03-02 07:53:00
1:53 AM,24.1,19.9,84,30.57,10.0,Calm,Calm,-,N/A,,Clear,0,2013-03-02 08:53:00
2:53 AM,24.1,19.9,84,30.56,10.0,SSW,10.4,-,N/A,,Clear,210,2013-03-02 09:53:00
3:53 AM,23.0,18.0,81,30.56,10.0,SSE,5.8,-,N/A,,Clear,150,2013-03-02 10:53:00
4:53 AM,21.9,18.0,85,30.56,10.0,Variable,3.5,-,N/A,,Clear,0,2013-03-02 11:53:00
5:53 AM,21.0,17.1,85,30.58,10.0,Calm,Calm,-,N/A,,Clear,0,2013-03-02 12:53:00
6:53 AM,21.9,18.0,85,30.60,10.0,Variable,5.8,-,N/A,,Clear,0,2013-03-02 13:53:00
7:53 AM,23.0,19.9,88,30.61,10.0,SSE,5.8,-,N/A,,Clear,160,2013-03-02 14:53:00
8:53 AM,28.9,21.9,75,30.60,10.0,Calm,Calm,-,N/A,,Clear,0,2013-03-02 15:53:00
9:53 AM,33.1,23.0,66,30.57,10.0,WSW,3.5,-,N/A,,Clear,250,2013-03-02 16:53:00
10:53 AM,37.0,25.0,62,30.53,10.0,Calm,Calm,-,N/A,,Clear,0,2013-03-02 17:53:00
11:53 AM,41.0,25.0,53,30.49,10.0,Variable,3.5,-,N/A,,Clear,0,2013-03-02 18:53:00
12:53 PM,48.0,24.1,39,30.42,10.0,Variable,3.5,-,N/A,,Clear,0,2013-03-02 19:53:00
1:53 PM,48.0,24.1,39,30.38,10.0,West,3.5,-,N/A,,Clear,280,2013-03-02 20:53:00
2:53 PM,50.0,23.0,35,30.34,10.0,Variable,3.5,-,N/A,,Clear,0,2013-03-02 21:53:00
3:53 PM,51.1,24.1,35,30.32,10.0,Calm,Calm,-,N/A,,Clear,0,2013-03-02 22:53:00
4:53 PM,50.0,27.0,41,30.30,10.0,Variable,5.8,-,N/A,,Clear,0,2013-03-02 23:53:00
5:53 PM,45.0,28.0,52,30.32,10.0,Variable,4.6,-,N/A,,Clear,0,2013-03-03 00:53:00
6:53 PM,37.0,28.0,70,30.33,10.0,Calm,Calm,-,N/A,,Clear,0,2013-03-03 01:53:00
7:53 PM,36.0,27.0,70,30.32,10.0,South,3.5,-,N/A,,Clear,170,2013-03-03 02:53:00
8:53 PM,33.1,26.1,75,30.31,10.0,SE,4.6,-,N/A,,Clear,140,2013-03-03 03:53:00
9:53 PM,32.0,26.1,79,30.28,10.0,Calm,Calm,-,N/A,,Clear,0,2013-03-03 04:53:00
10:53 PM,32.0,26.1,79,30.23,10.0,Calm,Calm,-,N/A,,Clear,0,2013-03-03 05:53:00
11:53 PM,32.0,26.1,79,30.20,10.0,Calm,Calm,-,N/A,,Clear,0,2013-03-03 06:53:00